Regional Weather Roundup
Issued by NWS

Home | Current Version | Previous Version | Graphics & Text | Print | Product List | Glossary On
Versions: 1 2 3 4 5 6 7 8 9 10 11 12 13 14 15 16 17 18 19 20 21 22 23 24 25 26 27 28 29 30 31 32 33 34 35 36 37 38 39 40 41 42 43 44 45 46 47 48 49 50
000
ASUS45 KCYS 012210
RWRWY

WYOMING REGIONAL WEATHER ROUNDUP
NATIONAL WEATHER SERVICE CHEYENNE WY
300 PM MST SUN FEB 01 2015

NOTE:  "FAIR" INDICATES FEW OR NO CLOUDS BELOW 12,000 FEET
WITH NO SIGNIFICANT WEATHER AND/OR OBSTRUCTIONS TO VISIBILITY.

WYZ001-012300-
YELLOWSTONE NATIONAL PARK

CITY           SKY/WX    TMP DP  RH WIND       PRES   REMARKS
LK YELLOWSTONE   N/A     24  13  62 VRB7      30.06F WCI  16
W YELLOWSTONE  NOT AVBL

$$
WYZ002>013-054>058-071-098>099-012300-
NORTHERN WYOMING

CITY           SKY/WX    TMP DP  RH WIND       PRES   REMARKS
JACKSON        CLOUDY    21  18  86 CALM      30.12F
CODY           FAIR      28  19  69 SE14      30.04F WCI  17
GREYBULL       FAIR      24  13  62 SE12      30.16F WCI  13
WORLAND        FAIR      22  13  68 SE7       30.14F WCI  13
SHERIDAN       FAIR      29  10  45 SE9       30.10F WCI  20
BUFFALO        FAIR      25  11  55 S17       30.07F WCI  12
GILLETTE       FAIR      22  10  60 S12       30.12F WCI  10
HULETT           N/A    N/A N/A N/A MISG        N/A
NEWCASTLE      FAIR      19   3  49 NW8       30.18F WCI   9

$$
WYZ014>020-022>026-101>103-012300-
CENTRAL WYOMING

CITY           SKY/WX    TMP DP  RH WIND       PRES   REMARKS
BIG PINEY      FAIR      34   8  33 CALM      30.10F
PINEDALE       CLOUDY    30  10  43 E3        30.11S
DUBOIS         FAIR      34   5  29 NW17G30   30.01R WCI  23
LANDER         PTSUNNY   31  17  56 N7        30.06F WCI  24
RIVERTON       PTSUNNY   29  15  56 E8        30.08F WCI  21
CASPER         FAIR      27  13  55 SW13      30.12F WCI  16
DOUGLAS        FAIR      26  10  50 NW13      30.15F WCI  15

$$
WYZ021-027>030-104>119-012300-
SOUTHERN WYOMING

CITY           SKY/WX    TMP DP  RH WIND       PRES   REMARKS
EVANSTON       CLOUDY    36  19  50 W14       30.14S WCI  27
KEMMERER       FAIR      34  19  55 W18       30.12S WCI  23
FORT BRIDGER   CLOUDY    38  14  37 W12       30.15F WCI  31
ROCK SPRINGS   FAIR      34  13  41 W15       30.09F WCI  24
DIXON          FAIR      33  12  41 CALM      30.16S
RAWLINS        FAIR      32  10  40 W13G18    30.10F WCI  22
SARATOGA       FAIR      32  10  40 NW10      30.10F WCI  24
LARAMIE        FAIR      24   6  46 NW22G29   30.05F WCI   9
CHEYENNE       FAIR      24  10  55 N13       30.08S WCI  12
TORRINGTON     FAIR      25   4  40 NW13      30.19F WCI  14
PINE BLUFFS    FAIR      25  10  54 N20       30.15S WCI  11

$$


USA.gov is the U.S. government's official web portal to all federal, state and local government web resources and services.